Cleveland Burke, OH

5:17 PM EDT on June 28, 2017 (GMT -0400)
Burke Lakefront

Weather History for KBKL - October, 2014

Change the Weather History Date:

Sunday, October 26, 2014

  Actual Average Record
Temperature  
Mean Temperature 52 °F -  
Max Temperature 57 °F 56 °F 77 °F (2010)
Min Temperature 48 °F 44 °F 36 °F (2001)
Degree Days  
Heating Degree Days 12    
Growing Degree Days 2 (Base 50)    
Moisture  
Dew Point 38 °F    
Average Humidity 55    
Maximum Humidity 62    
Minimum Humidity 49    
Precipitation  
Precipitation 0.00 in - - ()
Sea Level Pressure  
Sea Level Pressure 29.90 in    
Wind  
Wind Speed 17 mph (West)    
Max Wind Speed 23 mph    
Max Gust Speed 31 mph    
Visibility 10 miles    
Events      
Averages and records for this station are not official NWS values.
T = Trace of Precipitation, MM = Missing Value Source: NWS Daily Summary

Daily Weather History Graph

Daily Weather History Graph

Search for Another Location

Airport or City:

Trip Planner

Search our weather history database for the weather conditions in past years. The results will help you decide how hot, cold, wet, or windy it might be!

Date:

Astronomy

Oct. 26, 2014 Rise Set
Actual Time 7:51 AM EDT 6:29 PM EDT
Civil Twilight 7:22 AM EDT 6:57 PM EDT
Nautical Twilight 6:50 AM EDT 7:30 PM EDT
Astronomical Twilight 6:18 AM EDT 8:02 PM EDT
Moon 10:29 AM EDT (10/26) 8:38 PM EDT (10/26)
Length of Visible Light 11h 34m
Length of Day
10h 38m
Waxing Crescent, 8% of the Moon is Illuminated
Oct 26
Waxing Crescent
Oct 30
First Quarter
Nov 6
Full
Nov 14
Last Quarter
Nov 22
New

Hourly Weather History & Observations

Time (EDT) Temp. Dew Point Humidity Pressure Visibility Wind Dir Wind Speed Gust Speed Precip Events Conditions
12:53 AM 57.0 °F 44.1 °F 62% 29.79 in 10.0 mi West 18.4 mph - N/A   Clear
1:53 AM 57.0 °F 43.0 °F 59% 29.79 in 10.0 mi West 20.7 mph - N/A   Clear
2:53 AM 55.9 °F 41.0 °F 57% 29.81 in 10.0 mi WNW 21.9 mph 28.8 mph N/A   Clear
3:53 AM 55.0 °F 37.9 °F 53% 29.82 in 10.0 mi NW 23.0 mph 31.1 mph N/A   Clear
4:53 AM 54.0 °F 36.0 °F 51% 29.83 in 10.0 mi NW 18.4 mph - N/A   Clear
5:53 AM 54.0 °F 36.0 °F 51% 29.85 in 10.0 mi NW 17.3 mph - N/A   Clear
6:53 AM 53.1 °F 37.0 °F 55% 29.86 in 10.0 mi WNW 19.6 mph - N/A   Clear
7:53 AM 53.1 °F 36.0 °F 52% 29.88 in 10.0 mi NW 18.4 mph - N/A   Clear
8:53 AM 53.1 °F 37.0 °F 55% 29.90 in 10.0 mi WNW 17.3 mph - N/A   Clear
9:53 AM 54.0 °F 37.9 °F 55% 29.92 in 10.0 mi WNW 15.0 mph - N/A   Clear
10:53 AM 54.0 °F 39.0 °F 57% 29.93 in 10.0 mi WNW 18.4 mph - N/A   Clear
11:53 AM 54.0 °F 39.0 °F 57% 29.94 in 10.0 mi West 17.3 mph - N/A   Clear
12:53 PM 55.0 °F 39.9 °F 57% 29.93 in 10.0 mi West 18.4 mph - N/A   Clear
1:53 PM 55.0 °F 39.9 °F 57% 29.92 in 10.0 mi West 19.6 mph - N/A   Clear
2:53 PM 55.0 °F 37.9 °F 53% 29.91 in 10.0 mi West 19.6 mph - N/A   Clear
3:53 PM 55.0 °F 37.9 °F 53% 29.92 in 10.0 mi West 13.8 mph - N/A   Clear
4:53 PM 55.9 °F 37.0 °F 49% 29.93 in 10.0 mi West 15.0 mph - N/A   Clear
5:53 PM 55.0 °F 39.0 °F 55% 29.93 in 10.0 mi West 11.5 mph - N/A   Clear
6:53 PM 54.0 °F 39.9 °F 59% 29.94 in 10.0 mi West 10.4 mph - N/A   Clear
7:53 PM 51.1 °F 36.0 °F 56% 29.94 in 10.0 mi SW 6.9 mph - N/A   Clear
8:53 PM 52.0 °F 35.1 °F 53% 29.94 in 10.0 mi South 4.6 mph - N/A   Clear
9:53 PM 50.0 °F 35.1 °F 57% 29.95 in 10.0 mi SSE 5.8 mph - N/A   Clear
10:53 PM 48.9 °F 35.1 °F 59% 29.95 in 10.0 mi SSE 5.8 mph - N/A   Clear
11:53 PM 50.0 °F 33.1 °F 52% 29.95 in 10.0 mi SSE 3.5 mph - N/A   Clear